This demonstration page uses our WeatherBlox Daily Observations layout. Learn more.

Left ArrowRight Arrow

Hourly Observations for April 30, 2022

Temp ( °F °C ) Dew Point ( °F °C ) Humidity (%) Winds ( mph kmh ) Pressure ( in mb ) Visibility ( mi km ) Precip ( " mm )
12:02 am 00:02 Partly Cloudy 52 11.1 50 10 93 93 WNW 12 19 29.50 999 10 16 0.00 0.00
12:53 am 00:53 Cloudy 53 11.7 50 10 89 89 WNW 17 28 29.49 999 10 16 0.00 0.00
1:19 am 01:19 Cloudy 53 11.7 49 9.4 86 86 W 17 28 29.53 1000 10 16 0.00 0.00
1:53 am 01:53 Cloudy with Light Rain 52 11.1 49 9.4 89 89 W 23 37 29.50 999 10 16 0.00 0.00
2:33 am 02:33 Cloudy with Light Rain 50 10 49 9.4 96 96 W 17 28 29.54 1000 5 8 0.05 1.27
2:48 am 02:48 Cloudy with Light Rain 50 10 46 8 88 88 WNW 30 48 29.53 1000 6 10 0.06 1.52
2:53 am 02:53 Cloudy with Light Rain 50 10 47 8.3 89 89 WNW 21 33 29.50 999 5 8 0.07 1.78
3:53 am 03:53 Cloudy with Light Rain 48 8.9 45 7.2 89 89 WNW 25 41 29.50 999 5 8 0.06 1.52
4:53 am 04:53 Cloudy with Light Rain 47 8.3 44 6.7 90 90 WNW 33 54 29.50 999 8 13 0.06 1.52
5:10 am 05:10 Cloudy with Light Rain 46 7.8 43 6.1 89 89 WNW 31 50 29.55 1001 6 10 0.01 0.25
5:53 am 05:53 Cloudy with Light Rain 45 7.2 42 5.6 90 90 WNW 37 59 29.52 1000 8 13 0.03 0.76
6:27 am 06:27 Cloudy with Light Rain 44 6.7 40 4.4 85 85 WNW 32 52 29.57 1001 10 16 0.01 0.25
6:53 am 06:53 Cloudy with Light Rain 44 6.7 40 4.4 85 85 WNW 30 48 29.56 1001 8 13 0.01 0.25
7:53 am 07:53 Cloudy with Light Rain 44 6.7 40 4.4 85 85 WNW 37 59 29.57 1001 5 8 0.04 1.02
8:31 am 08:31 Cloudy with Light Rain 45 7.2 40 4.4 83 83 NW 36 57 29.61 1003 10 16 0.00 0.00
8:53 am 08:53 Cloudy 46 7.8 41 5 83 83 NW 36 57 29.59 1002 10 16 0.00 0.00
9:53 am 09:53 Cloudy 48 8.9 41 5 77 77 NW 33 54 29.62 1003 10 16 0.00 0.00
10:53 am 10:53 Cloudy 48 8.9 41 5 77 77 NW 31 50 29.68 1005 10 16 0.00 0.00
11:53 am 11:53 Cloudy 48 8.9 40 4.4 74 74 NW 36 57 29.72 1007 10 16 0.00 0.00
12:53 pm 12:53 Cloudy 48 8.9 41 5 77 77 WNW 30 48 29.75 1007 10 16 0.00 0.00
1:33 pm 13:33 Cloudy 49 9.4 40 4.4 71 71 NW 29 46 29.78 1009 10 16 0.00 0.00
1:53 pm 13:53 Cloudy 49 9.4 40 4.4 71 71 NW 26 43 29.77 1008 10 16 0.00 0.00
2:53 pm 14:53 Cloudy 51 10.6 41 5 69 69 WNW 26 43 29.78 1009 10 16 0.00 0.00
3:53 pm 15:53 Cloudy 53 11.7 41 5 64 64 NW 28 44 29.80 1009 10 16 0.00 0.00
4:53 pm 16:53 Mostly Cloudy 56 13.3 42 5.6 60 60 NW 28 44 29.80 1009 10 16 0.00 0.00
5:53 pm 17:53 Cloudy 56 13.3 41 5 57 57 NW 26 43 29.82 1010 10 16 0.00 0.00
6:53 pm 18:53 Mostly Cloudy 55 12.8 40 4.4 57 57 NW 23 37 29.84 1010 10 16 0.00 0.00
7:53 pm 19:53 Partly Cloudy 53 11.7 39 3.9 59 59 NW 22 35 29.87 1011 10 16 0.00 0.00
8:53 pm 20:53 Clear 50 10 39 3.9 66 66 NW 13 20 29.89 1012 10 16 0.00 0.00
9:53 pm 21:53 Clear 46 7.8 39 3.9 77 77 WNW 9 15 29.92 1013 10 16 0.00 0.00
10:53 pm 22:53 Clear 45 7.2 38 3.3 77 77 WNW 9 15 29.94 1014 10 16 0.00 0.00
11:53 pm 23:53 Clear 45 7.2 38 3.3 77 77 W 9 15 29.95 1014 10 16 0.00 0.00

Powered by AerisWeather